Regional Weather Roundup
Issued by NWS

Home | Current Version | Previous Version | Text Only | Print | Product List | Glossary Off
Versions: 1 2 3 4 5 6 7 8 9 10 11 12 13 14 15 16 17 18 19 20 21 22 23 24 25 26 27 28 29 30 31 32 33 34 35 36 37 38 39 40 41 42 43 44 45 46 47 48 49 50

588
ASUS43 KMKX 260900
RWRWI

WISCONSIN REGIONAL WEATHER ROUNDUP
NATIONAL WEATHER SERVICE MILWAUKEE/SULLIVAN WI
400 AM CDT MON SEP 26 2016

NOTE: "FAIR" INDICATES FEW OR NO CLOUDS BELOW 12,000 FEET WITH NO
SIGNIFICANT WEATHER AND/OR OBSTRUCTIONS TO VISIBILITY.

WIZ001-002-006>008-014>016-023>028-261000-
NORTHWEST WISCONSIN

CITY           SKY/WX    TMP DP  RH WIND       PRES   REMARKS
SUPERIOR ARPT  DRIZZLE   50  49  93 W13G20    29.73F
ASHLAND        CLOUDY    50  48  93 SW17G25   29.71F FOG
HAYWARD        LGT RAIN  49  47  93 W9G20     29.78F
SIREN          DRIZZLE   50  46  87 W14G22    29.84F
CUMBERLAND     DRIZZLE   48  45  87 W21G30    29.84F
RICE LAKE      LGT RAIN  52  44  75 W13G24    29.86S
CHETEK         NOT AVBL
LADYSMITH      CLOUDY    52  44  74 W13G23    29.83F
EAU CLAIRE     NOT AVBL
MENOMONIE      CLEAR     55  44  67 W15G23    29.89F
NEW RICHMOND   PTCLDY    51  43  73 W10G23    29.90F
OSCEOLA        PTCLDY    53  44  73 W12G18    29.92F
$$

WIZ003>005-009-010-017-018-261000-
NORTH CENTRAL WISCONSIN

CITY           SKY/WX    TMP DP  RH WIND       PRES   REMARKS
MANITOWISH WTR NOT AVBL
ARBOR VITAE    CLOUDY    52  49  91 W9        29.76F
WOODRUFF       CLOUDY    52  49  91 W9        29.76F
RHINELANDER    CLOUDY    49  46  90 W15       29.78F
EAGLE RIVER    RAIN      49  48  94 SW7       29.75F
LAND O LAKES   CLOUDY    50  45  82 W6        29.75F
PHILLIPS       CLOUDY    49  45  85 SW8       29.78F
TOMAHAWK       CLOUDY    49  42  77 W8G16     29.80F
MEDFORD        CLOUDY    49  45  85 W12       29.82F
MERRILL        CLOUDY    50  44  79 W12       29.83F
$$

WIZ029-030-035-036-043>047-261000-
CENTRAL WISCONSIN

CITY           SKY/WX    TMP DP  RH WIND       PRES   REMARKS
WAUSAU         CLOUDY    51  43  74 W9G20     29.82F
MOSINEE        PTCLDY    48  43  81 W13G18    29.86F
MARSHFIELD     CLEAR     50  42  74 W12       29.85F
STEVENS POINT  PTCLDY    50  43  76 W12       29.87F
WAUPACA        CLOUDY    55  45  67 W8        29.87F
WAUTOMA        PTCLDY    54  47  77 SW13      29.89F
WISC RAPIDS    CLEAR     52  46  80 W9        29.89F
CAMP DOUGLAS   CLEAR     53  47  82 SW10      29.91F
$$

WIZ011>013-019>022-031-037>040-048>050-261000-
NORTHEAST WISCONSIN

CITY           SKY/WX    TMP DP  RH WIND       PRES   REMARKS
ANTIGO         CLOUDY    49  44  81 W15G23    29.81F
SHAWANO        CLOUDY    56  46  69 W7G20     29.83F
OCONTO         NOT AVBL
STURGEON BAY   CLOUDY    57  51  80 W13       29.79F
GREEN BAY      CLOUDY    56  49  77 SW8       29.84R
MANITOWOC      NOT AVBL
APPLETON       CLOUDY    54  41  62 W14G22    29.85S
CLINTONVILLE   NOT AVBL
OSHKOSH        CLOUDY    57  44  62 W8G17     29.87S
$$

WIZ032>034-041-042-053>061-261000-
SOUTHWEST WISCONSIN

CITY           SKY/WX    TMP DP  RH WIND       PRES   REMARKS
LA CROSSE      CLEAR     57  45  64 W13       29.94F
SPARTA         CLEAR     51  49  90 W3        29.94F
VIROQUA        CLEAR     51  46  83 W7        29.96F
BOSCOBEL       CLEAR     55  47  74 SW8       29.98F
PRAIRIE DU CHI CLEAR     55  44  67 W8G18     29.99F
PLATTEVILLE    PTCLDY    54  50  88 W10       30.00F
$$

WIZ056-057-062-063-064-067-068-261000-
SOUTH CENTRAL WISCONSIN

CITY           SKY/WX    TMP DP  RH WIND       PRES   REMARKS
REEDSBURG      NOT AVBL
BARABOO/DELLS  PTCLDY    53  47  81 W8        29.94R
LONE ROCK      NOT AVBL
MINERAL POINT  PTCLDY    54  50  87 W7        29.98F
MADISON        MOCLDY    57  49  74 VRB3      29.94F
MIDDLETON      MOCLDY    56  50  79 W9        29.95F
WATERTOWN      CLOUDY    57  50  78 W7        29.93F
MONROE         CLOUDY    55  50  82 W10G17    29.98S
JANESVILLE     CLOUDY    59  50  72 W8        29.97R
$$

WIZ051-052-058>065-066-070>072-261000-
SOUTHEAST WISCONSIN

CITY           SKY/WX    TMP DP  RH WIND       PRES   REMARKS
MILWAUKEE      CLOUDY    61  50  67 W9G20     29.92S
WAUKESHA       CLOUDY    55  46  71 W10G18    29.93F
MILWAUKEE/TIMM CLOUDY    57  48  72 W10G16    29.92S
RACINE         CLOUDY    60  50  69 W8        29.94S
BURLINGTON     CLOUDY    57  49  75 W8        29.95R
KENOSHA        CLOUDY    59  52  77 W9        29.94S
FOND DU LAC    CLOUDY    57  45  64 W9        29.89F
SHEBOYGAN      CLOUDY    58  46  64 W12G18    29.87F
WEST BEND      CLOUDY    57  48  72 W12       29.90S
JUNEAU         CLOUDY    56  48  74 W8        29.93S
$$

LSZ147-162-261000-
LAKE SUPERIOR

STATION/POSITION TIME  TEMP    WIND        PRES    WAVE
                       AIR SEA DIR/SP/G            HT/PER
                 (UTC) (F)     (DEG/KT/KT) (MB)    (FT/S)
W MID LAKE BUOY  0750   56 59  240/ 25/ 29 1002.7F   6/ 7
DEVILS ISLAND    0800   53     230/ 24/ 29 1004.3F
SAXON HARBOR     0840   53     220/  9/ 17 1005.8F
$$

LMZ867-665-643>646-261000-
LAKE MICHIGAN

STATION/POSITION TIME  TEMP    WIND        PRES    WAVE
                       AIR SEA DIR/SP/G            HT/PER
                 (UTC) (F)     (DEG/KT/KT) (MB)    (FT/S)
CHAMBERS ISLAND  0800   60     220/  7/ 18 1008.1F
N MID LAKE BUOY  0750   64 67  240/ 21/ 23 1006.6F   4/ 6
NORTHPORT PIER   0800   60     270/  7/ 17 1008.1S
KEWAUNEE LAKESHO 0800   59     270/ 10/ 15 1009.3F
SHEBOYGAN LAKESH 0800   61     270/ 14/ 19 1011.3R
PORT WASHINGTON  0840   61     280/  7/ 13 1012.9S
ATWATER BUOY     0800   60 52  260/ 10/ 12 1012.9R
MILWAUKEE LAKESH 0810   61     270/ 14/ 16   N/A
S MID LAKE BUOY  0750   65 72  280/ 19/ 23 1011.8F   4/ 4
KENOSHA   LAKESH 0800   62     270/ 11/ 17 1013.5S
$$

TC  - TEMPERATURE IN CELSIUS
VSB - VISIBILITY IN STATUTE MILES
WCI - WIND CHILL INDEX
HX  - HEAT INDEX





USA.gov is the U.S. government's official web portal to all federal, state and local government web resources and services.